Regional Weather Roundup
Issued by NWS

Home | Current Version | Previous Version | Graphics & Text | Print | Product List | Glossary On
Versions: 1 2 3 4 5 6 7 8 9 10 11 12 13 14 15 16 17 18 19 20 21 22 23 24 25 26 27 28 29 30 31 32 33 34 35 36 37 38 39 40 41 42 43 44 45 46 47 48 49 50
647
ASUS43 KBIS 271502
RWRND

NORTH DAKOTA REGIONAL WEATHER ROUNDUP
NATIONAL WEATHER SERVICE BISMARCK ND
1000 AM CDT THU JUL 27 2017

NOTE: "FAIR" INDICATES FEW OR NO CLOUDS BELOW 12,000 FEET WITH NO
SIGNIFICANT WEATHER AND/OR OBSTRUCTIONS TO VISIBILITY.


NDZ001>003-009>011-017-271600-
NORTHWEST NORTH DAKOTA

CITY           SKY/WX    TMP DP  RH WIND       PRES   REMARKS
WILLISTON      LGT RAIN  66  60  81 SE14      30.08F
MINOT          CLOUDY    71  59  65 S10       30.11S
MINOT AFB      CLOUDY    70  60  69 SW7       30.10S
$$

NDZ018>021-031>035-040>046-271600-
SOUTHWEST NORTH DAKOTA

CITY           SKY/WX    TMP DP  RH WIND       PRES   REMARKS
BISMARCK       CLOUDY    72  61  68 SE5       30.14F
DICKINSON      SUNNY     74  58  57 SE22G29   30.10F
GARRISON         N/A     63  61  93 W13       30.16R
HETTINGER ARPT PTSUNNY   76  57  51 SE14      30.12F
$$

NDZ004>008-012>016-024-026-027-054-271600-
NORTHEAST NORTH DAKOTA

CITY           SKY/WX    TMP DP  RH WIND       PRES   REMARKS
GRAND FORKS    PTSUNNY   72  64  76 W5        30.13S
GRND FRKS AFB  CLOUDY    71  63  75 NW3       30.13F
DEVILS LAKE    PTSUNNY   74  59  59 S5        30.15F
$$

NDZ022-023-025-028>030-036>039-047>053-271600-
SOUTHEAST NORTH DAKOTA

CITY           SKY/WX    TMP DP  RH WIND       PRES   REMARKS
FARGO          SUNNY     75  62  64 VRB6      30.13F
JAMESTOWN      MOSUNNY   75  59  57 SE6       30.14F
$$





USA.gov is the U.S. government's official web portal to all federal, state and local government web resources and services.